Location: ??????
(56.0120°N, 39.1740°E)
Time: 18:19:55
(UTC+00:00)

Cosmos 2074 Rocket - Pass Details

Date: 14 April 2026
Orbit: 967 x 984 km, 82.9° (Epoch: 16 May)

Event Time Altitude Azimuth Distance (km) Brightness Sun altitude
Rises 17:03:38 0° 194° (SSW) 3,658 6.9 -5.4°
Reaches altitude 10° 17:06:08 10° 196° (SSW) 2,717 6.2 -5.8°
Maximum altitude 17:12:22 77° 283° (WNW) 1,007 4.3 -6.5°
Drops below altitude 10° 17:18:41 10° 10° (N) 2,747 6.6 -7.3°
Sets 17:21:14 0° 12° (NNE) 3,701 7.3 -7.6°
